Date,TemperatureHighF,TemperatureAvgF,TemperatureLowF,DewpointHighF,DewpointAvgF,DewpointLowF,HumidityHigh,HumidityAvg,HumidityLow,PressureMaxIn,PressureMinIn,WindSpeedMaxMPH,WindSpeedAvgMPH,GustSpeedMaxMPH,PrecipitationSumIn
2013-3-1,40.8,32.6,28.8,32.3,25.8,23.3,81,76,67,30.60,30.53,8,3,8,0.00
2013-3-2,32.2,32.1,32.0,26.1,26.0,25.9,78,78,78,30.57,30.56,3,3,4,0.00
2013-3-3,43.9,35.0,29.3,33.6,24.6,17.8,79,66,50,30.16,29.95,27,9,27,0.01
2013-3-4,36.3,29.3,23.9,18.3,8.1,3.3,62,41,25,30.35,30.11,11,4,12,0.00
2013-3-5,41.4,28.2,21.2,20.5,10.5,2.9,61,47,37,30.35,30.07,11,4,14,0.00
2013-3-6,53.6,35.6,27.0,32.9,24.3,14.4,81,64,41,30.08,29.87,17,6,21,0.20
2013-3-7,41.4,34.6,27.3,25.4,21.4,16.2,69,59,44,30.17,30.06,11,4,15,0.00
2013-3-8,42.3,34.1,27.3,33.2,26.1,20.2,79,72,63,30.07,29.97,8,3,8,0.06
2013-3-9,45.0,33.3,22.5,22.8,17.3,10.7,76,54,25,30.37,30.01,15,3,18,0.00
2013-3-10,46.8,35.3,25.3,28.3,20.8,15.1,68,56,37,30.45,30.30,18,7,18,0.00
2013-3-11,52.3,41.9,36.0,34.4,26.0,16.6,72,53,42,30.31,30.22,18,8,19,0.01
2013-3-12,54.3,39.0,29.5,34.9,28.2,22.6,76,65,45,30.39,30.27,18,7,18,0.00
2013-3-13,42.8,32.5,29.5,30.7,25.5,22.8,79,75,62,30.41,30.33,7,1,7,0.00
2013-3-14,60.8,50.9,31.3,38.6,34.1,25.5,81,54,37,30.39,30.23,8,3,9,0.00
2013-3-15,59.0,48.0,36.1,36.1,31.9,27.5,73,55,33,30.24,30.14,21,7,24,0.00
2013-3-16,55.6,43.0,33.3,34.8,28.3,18.9,84,57,25,30.15,29.94,21,8,21,0.02
2013-3-17,43.5,36.9,29.5,36.4,15.1,1.8,86,45,22,30.11,29.87,29,14,33,0.04
2013-3-18,45.0,33.8,23.4,18.3,12.8,8.9,60,43,26,30.19,30.05,28,12,32,0.00
2013-3-19,51.4,38.6,22.6,19.9,11.3,4.3,63,35,20,30.35,30.19,11,4,16,0.00
2013-3-20,47.3,40.9,34.3,41.1,27.5,5.9,88,64,23,30.22,29.85,20,5,20,0.33
2013-3-21,41.4,36.1,28.8,36.8,20.6,11.3,86,55,36,30.09,29.86,31,17,34,0.01
2013-3-22,34.9,27.0,22.8,21.6,17.0,13.4,79,66,46,30.15,30.02,14,6,17,0.02
2013-3-23,35.1,24.9,14.5,19.5,14.3,6.9,76,64,37,30.30,30.15,17,4,19,0.01
2013-3-24,37.4,27.0,18.0,20.5,10.3,-0.4,76,53,21,30.34,30.27,10,3,11,0.00
2013-3-25,46.0,32.0,17.2,21.0,8.9,1.9,53,39,22,30.30,30.16,10,3,11,0.00
2013-3-26,48.7,35.0,30.2,34.2,24.4,16.6,81,66,44,30.16,30.08,11,3,11,0.05
2013-3-27,57.2,43.5,30.9,36.7,31.1,26.1,84,64,36,30.18,30.11,13,2,13,0.00
2013-3-28,64.4,48.6,32.2,37.6,31.5,25.3,77,55,26,30.21,30.14,10,4,11,0.00
2013-3-29,64.4,51.0,39.7,40.2,35.1,28.7,80,57,27,30.29,30.20,21,8,24,0.00
2013-3-30,60.8,45.6,32.2,37.9,32.9,26.7,83,64,31,30.35,30.27,8,3,11,0.00
2013-3-31,68.5,50.4,29.5,34.7,26.7,17.1,81,45,15,30.27,30.08,9,3,9,0.00